Location: LDNL
(36.4545°S, 141.6685°E)
Time: 11:45:52
(UTC+10:00)

Explorer 7 - Pass Details

Date: 16 August 2022
Orbit: 482 x 668 km, 50.3° (Epoch: 26 September)

Event Time Altitude Azimuth Distance (km) Brightness Sun altitude
Rises 22:51:12 0° 228° (SW) 2,939 - -57.0°
Reaches altitude 10° 22:53:43 10° 220° (SW) 1,998 - -57.4°
Maximum altitude 22:58:02 40° 150° (SSE) 886 - -58.1°
Drops below altitude 10° 23:02:05 10° 79° (E) 1,869 - -58.7°
Sets 23:04:22 0° 71° (ENE) 2,726 - -59.1°
